ARIANE 1 DEB

Satellite information

Favourite Embed

Satellite Type and Status

DEBRISIN ORBIT

Key statistics

Satellite ARIANE 1 DEB at a glance.

Uptime

14543

Days in orbit

Revolutions

≈ 14.4

Per day

Orbit

SSO

Sun Synchronous Orbit

Inclination

98.2

Latest

Satellite identification and parameters

Extended collection of information and parameters for ARIANE 1 DEB.

Object identification

Identified? True

Debris? True

Object name: ARIANE 1 DEB

International designator: 1986-019ME

Object number (NORAD): 17815

Object ID (CCSDS): 17815

Country: FRANCE (FR)

Current information (Y/N): Y

RCS size: SMALL

Orbital parameters

Period: 99.752 minutes

Inclination: 98.1832 deg

SMA: 7124.837 km

Apoapsis: 764.61 km

Periapsis: 728.795 km

RAAN: 335.3247 deg

Eccentricy: 0.00251341

Argument of periapsis: 313.5166 deg

Mean anomaly: 99.9195 deg

Mean motion: 14.43578315 rev/day

Mean motion (dot): 0.00001114 rev/day2

B* drag term: 0.00033988407 1/REarth

Two-line elements (TLE)

Creation date: Dec. 16, 2025, 2:19 a.m.

Reference frame: TEME

Reference center: EARTH

Epoch: Dec. 15, 2025, 10:19 p.m. UTC

TLE line 0: 0 ARIANE 1 DEB

TLE line 1: 1 17815U 86019ME 25349.92996066 .00001114 00000-0 33988-3 0 9997

TLE line 2: 2 17815 98.1832 335.3247 0025134 313.5166 99.9195 14.43578315 36071

Live tracking on map

Real-time ground track for satellite ARIANE 1 DEB.

In-orbit conjunctions

A list of the most updated potential collisions computed for object ARIANE 1 DEB.

Target Orbit TCA Probability of collision Miss distance Type
CZ-2D DEB SSO 2025-06-12 12:07:25 0.0002079312 111.0 (m) DEBRIS

Associated space launch

SPOT 1 is a French Earth observation satellite. Viking is Sweden's first satellite.

ARIANE 1 DEB was lifted into orbit during the mission ‘Ariane 1 | SPOT 1 & Viking’, on board a Ariane 1 space rocket.

The launch took place on Feb. 22, 1986, 1:44 a.m. from Ariane Launch Area 1 (ELV).

For more information about the launch, click the button.

Launch to space Ariane 1 | SPOT 1 & Viking
Ariane 1 | SPOT 1 & Viking

Agency: N/A

Status: Launch Successful

Launch date: Feb. 22, 1986, 1:44 a.m. UTC

Rocket: Ariane 1

Launch pad: Ariane Launch Area 1 (ELV)

Location: Guiana Space Centre, French Guiana

...

Latest news about this satellite

There are no fresh news available about this satellite. Check back as we update our databases every day.


Newsletter sign-up

Weekly statistics, charts and insights to help you stay on top of the space industry.